Location: Little Maitland River
(43.8022°N, 81.1549°W)
Time: 15:10:58
(UTC+00:00)

Cosmos 2369 - Pass Details

Date: 09 December 2025
Orbit: 839 x 854 km, 71.0° (Epoch: 19 January)

Event Time Altitude Azimuth Distance (km) Brightness Sun altitude
Rises 00:08:07 0° 187° (S) 3,404 7.0 -24.6°
Reaches altitude 10° 00:10:37 10° 182° (S) 2,473 6.2 -25.0°
Enters shadow 00:14:29 39° 153° (SSE) 1,263 4.4 -25.7°
